M I D A S
Marine Information and Data Acquisition System
Tripno 1100 of the Zeeleeuw from 2006-05-08 07:10:12 to 2006-05-08 14:33:40
Back to CruiseResearch ActivitiesStationsMapUnderway DataData graphs

EquipmentUnitsComment
TimeDGPSUTC
LatitudeDGPSDM.mWGS84
LongitudeDGPSDM.mWGS84
HeadingGyrodeg 
SOGDGPSknotsSpeed over ground
COGDGPSdegCourse over ground
DepthEcho soundermeters200 kHz
Missing or incorrect values are displayed as -999
Navigation data collected by the RV Zeeleeuw from 2006-05-08 07:11:03 to 2006-05-08 14:51:04
                                                                                    Next 1000 lines
Time Latitude Longitude Heading SOG COG Depth
2006-05-08 07:11:13 51°13.6 2°56.094 104.5 0.8 280 6.6
2006-05-08 07:11:18 51°13.601 2°56.091 104.1 1.2 282 6.8
2006-05-08 07:11:23 51°13.601 2°56.088 103.9 1.5 284 7.3
2006-05-08 07:11:28 51°13.602 2°56.084 103.8 1.7 284 5.6
2006-05-08 07:11:34 51°13.603 2°56.078 103.6 1.9 282 -999
2006-05-08 07:11:39 51°13.604 2°56.072 102.8 2.6 284 -999
2006-05-08 07:11:44 51°13.604 2°56.066 102.3 2.8 282 -999
2006-05-08 07:11:49 51°13.605 2°56.059 102 3 280 -999
2006-05-08 07:11:54 51°13.606 2°56.052 101.8 3.2 280 -999
2006-05-08 07:11:59 51°13.606 2°56.045 101.8 3.4 279 -999
2006-05-08 07:12:04 51°13.607 2°56.037 102.3 3.6 279 -999
2006-05-08 07:12:09 51°13.608 2°56.028 103.2 3.7 279 -999
2006-05-08 07:12:14 51°13.609 2°56.02 104.4 3.8 280 -999
2006-05-08 07:12:19 51°13.61 2°56.012 105.9 3.8 281 -999
2006-05-08 07:12:24 51°13.611 2°56.003 107.5 3.9 283 -999
2006-05-08 07:12:29 51°13.613 2°55.995 109.4 3.9 284 -999
2006-05-08 07:12:34 51°13.614 2°55.986 111.4 4 286 -999
2006-05-08 07:12:39 51°13.616 2°55.978 113.5 4 288 -999
2006-05-08 07:12:44 51°13.618 2°55.97 115.4 4.1 290 -999
2006-05-08 07:12:48 51°13.62 2°55.963 117.2 4.1 291 -999
2006-05-08 07:12:54 51°13.623 2°55.953 118.9 4.2 293 -999
2006-05-08 07:12:59 51°13.625 2°55.944 120.6 4.3 294 -999
2006-05-08 07:13:04 51°13.628 2°55.935 122 4.4 297 -999
2006-05-08 07:13:09 51°13.631 2°55.926 123.4 4.5 298 -999
2006-05-08 07:13:14 51°13.634 2°55.918 125 4.5 300 -999
2006-05-08 07:13:19 51°13.638 2°55.909 126.4 4.6 301 -999
2006-05-08 07:13:24 51°13.641 2°55.901 128.1 4.7 303 -999
2006-05-08 07:13:29 51°13.645 2°55.892 129.2 4.7 304 -999
2006-05-08 07:13:34 51°13.649 2°55.884 130.5 4.7 306 -999
2006-05-08 07:13:39 51°13.653 2°55.875 131.6 4.7 307 -999
2006-05-08 07:13:44 51°13.657 2°55.867 132.4 4.8 308 -999
2006-05-08 07:13:49 51°13.662 2°55.859 133 4.9 309 -999
2006-05-08 07:13:54 51°13.666 2°55.85 133.5 5 309 -999
2006-05-08 07:13:59 51°13.671 2°55.842 133.8 5 310 -999
2006-05-08 07:14:04 51°13.675 2°55.833 134 5.1 311 -999
2006-05-08 07:14:09 51°13.68 2°55.824 134.1 5.2 311 -999
2006-05-08 07:14:14 51°13.685 2°55.816 134 5.1 311 -999
2006-05-08 07:14:19 51°13.689 2°55.808 133.5 4.8 311 -999
2006-05-08 07:14:24 51°13.693 2°55.8 132.7 4.6 310 -999
2006-05-08 07:14:29 51°13.697 2°55.793 131.6 4.4 309 -999
2006-05-08 07:14:34 51°13.7 2°55.785 130.4 4.4 308 11.2
2006-05-08 07:14:38 51°13.703 2°55.779 129.2 4.3 307 11.5
2006-05-08 07:14:44 51°13.707 2°55.77 127.7 4.3 306 -999
2006-05-08 07:14:49 51°13.71 2°55.762 125.9 4.2 304 -999
2006-05-08 07:14:54 51°13.713 2°55.755 123.5 4 303 -999
2006-05-08 07:14:59 51°13.716 2°55.748 121.8 3.8 302 -999
2006-05-08 07:15:04 51°13.718 2°55.741 120.2 3.6 300 -999
2006-05-08 07:15:09 51°13.72 2°55.735 118.8 3.4 299 -999
2006-05-08 07:15:14 51°13.722 2°55.729 117.4 3.1 298 12
2006-05-08 07:15:18 51°13.723 2°55.725 115.9 2.7 295 11.8
2006-05-08 07:15:23 51°13.725 2°55.721 113.7 2.1 296 11.9
2006-05-08 07:15:28 51°13.725 2°55.718 111 1.7 293 11.9
2006-05-08 07:15:33 51°13.726 2°55.715 108 1.4 293 11.8
2006-05-08 07:15:38 51°13.726 2°55.713 105.2 1.1 291 11.8
2006-05-08 07:15:43 51°13.727 2°55.712 102.8 0.8 297 11.8
2006-05-08 07:15:48 51°13.727 2°55.712 100.3 0.4 306 11.9
2006-05-08 07:15:54 51°13.728 2°55.712 97.2 0.4 39 11.8
2006-05-08 07:15:58 51°13.728 2°55.714 93.2 0.6 64 11.8
2006-05-08 07:16:04 51°13.729 2°55.717 87.8 1.1 67 11.8
2006-05-08 07:16:08 51°13.729 2°55.719 81.3 1.3 69 11.8
2006-05-08 07:16:13 51°13.73 2°55.721 75.2 1.2 58 11.8
2006-05-08 07:16:18 51°13.731 2°55.723 71.6 1.1 62 11.8
2006-05-08 07:16:23 51°13.731 2°55.724 68.1 0.8 51 11.8
2006-05-08 07:16:28 51°13.731 2°55.725 65.2 0.4 43 11.8
2006-05-08 07:16:32 51°13.732 2°55.725 62 0.2 352 11.8
2006-05-08 07:16:38 51°13.732 2°55.724 59.2 0.2 271 11.8
2006-05-08 07:16:44 51°13.731 2°55.722 56.6 0.6 255 11.8
2006-05-08 07:16:48 51°13.731 2°55.721 54.2 0.8 245 11.8
2006-05-08 07:16:52 51°13.73 2°55.719 51.7 1.1 241 11.8
2006-05-08 07:16:57 51°13.73 2°55.717 49.6 1.1 236 11.7
2006-05-08 07:17:04 51°13.728 2°55.715 47.9 0.9 239 -999
2006-05-08 07:17:09 51°13.728 2°55.713 46.2 0.7 246 -999
2006-05-08 07:17:14 51°13.728 2°55.712 44.1 0.5 252 -999
2006-05-08 07:17:19 51°13.728 2°55.712 41.4 0.4 287 -999
2006-05-08 07:17:24 51°13.729 2°55.711 39 0.3 340 4.9
2006-05-08 07:17:29 51°13.73 2°55.711 35 0.6 354 -999
2006-05-08 07:17:34 51°13.731 2°55.712 30.1 0.9 6 -999
2006-05-08 07:17:39 51°13.733 2°55.712 23.5 1.3 5 -999
2006-05-08 07:17:44 51°13.735 2°55.712 17.7 1.6 3 5.3
2006-05-08 07:17:48 51°13.737 2°55.712 13.5 1.7 3 11.7
2006-05-08 07:17:53 51°13.74 2°55.712 9.2 2.1 358 11.6
2006-05-08 07:17:58 51°13.743 2°55.711 4.1 2.3 355 11.5
2006-05-08 07:18:04 51°13.748 2°55.71 359.2 2.6 352 11.3
2006-05-08 07:18:08 51°13.751 2°55.709 354.2 2.8 347 11.3
2006-05-08 07:18:12 51°13.754 2°55.707 350 3.1 343 11.2
2006-05-08 07:18:18 51°13.759 2°55.704 346.2 3.3 340 11
2006-05-08 07:18:24 51°13.765 2°55.7 342.5 3.8 337 11.1
2006-05-08 07:18:27 51°13.768 2°55.698 339.1 4.2 335 10.8
2006-05-08 07:18:33 51°13.775 2°55.692 336 4.5 332 10.6
2006-05-08 07:18:38 51°13.782 2°55.686 333.8 4.9 331 10.6
2006-05-08 07:18:43 51°13.788 2°55.68 332.9 5.4 329 10.7
2006-05-08 07:18:48 51°13.796 2°55.674 332.8 5.6 330 11.3
2006-05-08 07:18:53 51°13.803 2°55.667 333.4 6 330 11.2
2006-05-08 07:18:58 51°13.811 2°55.66 333.9 6.3 331 11.1
2006-05-08 07:19:04 51°13.82 2°55.651 334.3 6.6 330 11
2006-05-08 07:19:08 51°13.827 2°55.645 334.4 6.8 331 11.2
2006-05-08 07:19:13 51°13.836 2°55.637 334.8 7 331 11.4
2006-05-08 07:19:18 51°13.844 2°55.63 335.5 7.2 332 11.4
2006-05-08 07:19:23 51°13.854 2°55.622 336.4 7.3 332 11.4
2006-05-08 07:19:28 51°13.863 2°55.614 337.4 7.5 333 11.4
2006-05-08 07:19:33 51°13.872 2°55.607 337.7 7.6 333 11.4
2006-05-08 07:19:38 51°13.882 2°55.599 338.3 7.7 334 11.5
2006-05-08 07:19:44 51°13.894 2°55.59 339.2 7.7 334 11.5
2006-05-08 07:19:48 51°13.902 2°55.584 340 7.9 336 11.4
2006-05-08 07:19:52 51°13.91 2°55.578 340.1 7.9 335 11.4
2006-05-08 07:19:57 51°13.92 2°55.571 340 8 335 11.4
2006-05-08 07:20:03 51°13.932 2°55.562 340.1 8 335 11.3
2006-05-08 07:20:08 51°13.942 2°55.554 340 8.1 334 11.3
2006-05-08 07:20:14 51°13.954 2°55.545 339.5 8.1 335 11.4
2006-05-08 07:20:18 51°13.962 2°55.539 339.5 8.1 334 11.3
2006-05-08 07:20:23 51°13.973 2°55.532 339.6 8.1 335 11.4
2006-05-08 07:20:28 51°13.982 2°55.524 339.8 7.9 335 11.4
2006-05-08 07:20:32 51°13.99 2°55.518 340 7.7 335 11.5
2006-05-08 07:20:38 51°14.001 2°55.51 340 7.5 335 11.5
2006-05-08 07:20:43 51°14.011 2°55.503 339.9 7.4 335 11.5
2006-05-08 07:20:48 51°14.02 2°55.496 340.1 7.2 336 11.5
2006-05-08 07:20:52 51°14.027 2°55.491 340.6 7.1 336 11.5
2006-05-08 07:20:58 51°14.038 2°55.484 340.9 7.2 337 11.4
2006-05-08 07:21:03 51°14.047 2°55.477 341.1 7.3 337 11.6
2006-05-08 07:21:08 51°14.056 2°55.471 340.9 7.4 336 11.6
2006-05-08 07:21:13 51°14.066 2°55.464 340.8 7.6 336 11.6
2006-05-08 07:21:18 51°14.076 2°55.457 340.8 7.9 335 11.6
2006-05-08 07:21:23 51°14.086 2°55.449 340.8 8.3 336 11.6
2006-05-08 07:21:28 51°14.097 2°55.441 340.5 8.5 335 11.6
2006-05-08 07:21:34 51°14.11 2°55.432 340.9 8.7 336 11.5
2006-05-08 07:21:38 51°14.119 2°55.425 341.1 8.8 336 11.5
2006-05-08 07:21:43 51°14.131 2°55.417 341.1 9 335 11.5
2006-05-08 07:21:47 51°14.14 2°55.41 340.3 9.1 334 11.5
2006-05-08 07:21:53 51°14.153 2°55.399 339.3 9.2 333 11.4
2006-05-08 07:21:58 51°14.165 2°55.389 337.7 9.3 332 11.5
2006-05-08 07:22:03 51°14.176 2°55.378 335.3 9.4 330 11.5
2006-05-08 07:22:08 51°14.187 2°55.367 334.1 9.5 329 11.4
2006-05-08 07:22:14 51°14.201 2°55.353 332.4 9.7 327 11.4
2006-05-08 07:22:18 51°14.21 2°55.343 331.3 9.8 326 11.4
2006-05-08 07:22:23 51°14.22 2°55.33 329.2 9.8 323 11.4
2006-05-08 07:22:28 51°14.231 2°55.316 327.4 9.9 321 11.4
2006-05-08 07:22:32 51°14.239 2°55.304 325.1 10 318 11.5
2006-05-08 07:22:38 51°14.251 2°55.286 322.8 10 317 11.4
2006-05-08 07:22:43 51°14.261 2°55.27 321.4 10.1 315 11.4
2006-05-08 07:22:48 51°14.271 2°55.253 319.7 10.1 313 11.4
2006-05-08 07:22:52 51°14.278 2°55.24 317.2 10.2 310 11.4
2006-05-08 07:22:58 51°14.289 2°55.218 314.2 10.2 309 11.5
2006-05-08 07:23:03 51°14.297 2°55.2 313.1 10.4 308 11.4
2006-05-08 07:23:08 51°14.306 2°55.181 312 10.7 307 11.4
2006-05-08 07:23:12 51°14.313 2°55.165 310.1 10.9 305 11.4
2006-05-08 07:23:18 51°14.324 2°55.141 309.5 11.1 306 11.4
2006-05-08 07:23:24 51°14.334 2°55.117 309.8 11.3 305 11.4
2006-05-08 07:23:28 51°14.341 2°55.101 310 11.3 305 11.5
2006-05-08 07:23:33 51°14.35 2°55.08 310.2 11.4 304 11.5
2006-05-08 07:23:38 51°14.359 2°55.058 308.8 11.5 303 11.4
2006-05-08 07:23:44 51°14.37 2°55.034 307.1 11.5 305 11.2
2006-05-08 07:23:48 51°14.378 2°55.018 308.6 11.5 307 11.3
2006-05-08 07:23:53 51°14.389 2°54.999 311.1 11.5 313 11.1
2006-05-08 07:23:58 51°14.401 2°54.981 314.1 11.5 315 11.3
2006-05-08 07:24:03 51°14.412 2°54.964 316.6 11.5 317 11.6
2006-05-08 07:24:08 51°14.425 2°54.948 319 11.5 318 11.6
2006-05-08 07:24:13 51°14.437 2°54.931 319.9 11.5 320 11.3
2006-05-08 07:24:18 51°14.45 2°54.916 321.2 11.6 321 11.2
2006-05-08 07:24:23 51°14.463 2°54.9 322.9 11.6 324 11.3
2006-05-08 07:24:28 51°14.476 2°54.887 325.5 11.6 326 11.2
2006-05-08 07:24:33 51°14.49 2°54.875 330 11.6 331 10.9
2006-05-08 07:24:38 51°14.505 2°54.865 333.7 11.6 336 10.9
2006-05-08 07:24:42 51°14.518 2°54.858 338.3 11.7 339 10.7
2006-05-08 07:24:48 51°14.536 2°54.846 340.2 11.9 339 10.7
2006-05-08 07:24:52 51°14.549 2°54.839 340.8 12.1 339 10.7
2006-05-08 07:24:58 51°14.568 2°54.827 340.9 12.2 338 10.7
2006-05-08 07:25:03 51°14.584 2°54.816 339.6 12.4 336 10.7
2006-05-08 07:25:08 51°14.599 2°54.804 338.2 12.5 335 10.6
2006-05-08 07:25:13 51°14.615 2°54.791 336.7 12.6 333 10.6
2006-05-08 07:25:18 51°14.63 2°54.777 333.8 12.6 330 10.6
2006-05-08 07:25:23 51°14.645 2°54.762 331.2 12.6 327 10.6
2006-05-08 07:25:28 51°14.659 2°54.747 329.2 12.7 326 10.5
2006-05-08 07:25:32 51°14.671 2°54.734 327.6 12.7 325 10.6
2006-05-08 07:25:38 51°14.688 2°54.713 326.6 12.7 324 10.6
2006-05-08 07:25:43 51°14.702 2°54.696 325.5 12.8 323 10.6
2006-05-08 07:25:48 51°14.716 2°54.679 325 12.8 322 10.6
2006-05-08 07:25:52 51°14.727 2°54.665 324.7 12.8 323 10.6
2006-05-08 07:25:57 51°14.742 2°54.648 325 12.9 323 10.6
2006-05-08 07:26:04 51°14.762 2°54.625 325.8 12.9 324 10.5
2006-05-08 07:26:08 51°14.774 2°54.612 327 12.9 325 10.5
2006-05-08 07:26:14 51°14.792 2°54.593 328 12.9 326 10.4
2006-05-08 07:26:18 51°14.804 2°54.58 328.7 12.9 326 10.4
2006-05-08 07:26:23 51°14.819 2°54.564 328.9 12.9 327 10.4
2006-05-08 07:26:28 51°14.834 2°54.549 329.2 12.9 327 10.4
2006-05-08 07:26:33 51°14.849 2°54.533 329.2 13 327 10.2
2006-05-08 07:26:37 51°14.861 2°54.521 329.5 12.9 327 10.5
2006-05-08 07:26:42 51°14.876 2°54.505 329.7 13 327 10.6
2006-05-08 07:26:48 51°14.894 2°54.486 329.8 13 327 10.4
2006-05-08 07:26:52 51°14.906 2°54.474 329.6 13 327 10.5
2006-05-08 07:26:58 51°14.924 2°54.455 329.3 13 327 10.3
2006-05-08 07:27:03 51°14.939 2°54.439 329.5 13 327 10.2
2006-05-08 07:27:08 51°14.955 2°54.423 329.5 12.9 327 10.2
2006-05-08 07:27:13 51°14.97 2°54.407 329.8 12.9 327 10
2006-05-08 07:27:18 51°14.985 2°54.392 329.9 12.9 327 10
2006-05-08 07:27:24 51°15.003 2°54.373 330.1 12.9 327 9.9
2006-05-08 07:27:28 51°15.015 2°54.361 330.2 13 328 9.9
2006-05-08 07:27:34 51°15.034 2°54.343 330.4 12.9 328 9.8
2006-05-08 07:27:38 51°15.046 2°54.331 330.9 13 329 9.9
2006-05-08 07:27:44 51°15.065 2°54.313 331.7 13 329 9.8
2006-05-08 07:27:48 51°15.077 2°54.302 332.4 13 330 9.8
2006-05-08 07:27:52 51°15.09 2°54.291 333 13 330 9.9
2006-05-08 07:27:58 51°15.109 2°54.274 333.2 13.1 330 9.9
2006-05-08 07:28:04 51°15.128 2°54.256 333.2 13 330 9.9
2006-05-08 07:28:08 51°15.14 2°54.245 333.1 13 330 10.1
2006-05-08 07:28:12 51°15.152 2°54.233 332.8 13 329 10.1
2006-05-08 07:28:18 51°15.171 2°54.215 332.4 13 329 10.1
2006-05-08 07:28:24 51°15.189 2°54.197 332 12.9 328 10.1
2006-05-08 07:28:28 51°15.202 2°54.186 331.6 12.9 328 10.2
2006-05-08 07:28:31 51°15.211 2°54.177 331.1 12.9 327 10.2
2006-05-08 07:28:38 51°15.232 2°54.154 330.4 12.9 326 10.3
2006-05-08 07:28:42 51°15.243 2°54.141 329.5 12.9 326 10.4
2006-05-08 07:28:48 51°15.261 2°54.122 329.1 12.9 325 10.4
2006-05-08 07:28:54 51°15.279 2°54.102 328.8 12.9 327 10.4
2006-05-08 07:28:58 51°15.291 2°54.09 329.2 12.8 327 10.5
2006-05-08 07:29:02 51°15.303 2°54.078 330.9 12.9 329 10.7
2006-05-08 07:29:08 51°15.321 2°54.061 332.3 12.9 329 10.7
2006-05-08 07:29:14 51°15.34 2°54.045 333.9 12.8 332 10.7
2006-05-08 07:29:17 51°15.35 2°54.037 334.8 12.9 332 10.9
2006-05-08 07:29:24 51°15.372 2°54.019 335.9 12.9 333 10.9
2006-05-08 07:29:28 51°15.385 2°54.009 336.6 12.9 334 11
2006-05-08 07:29:33 51°15.401 2°53.996 337.3 12.9 334 11.1
2006-05-08 07:29:39 51°15.42 2°53.981 337.5 13 334 11.2
2006-05-08 07:29:44 51°15.437 2°53.969 337.9 13 335 11.1
2006-05-08 07:29:48 51°15.45 2°53.959 338.3 13 335 11.2
2006-05-08 07:29:52 51°15.463 2°53.95 338.6 13 335 11.3
2006-05-08 07:29:56 51°15.476 2°53.94 338.7 13 335 11.3
2006-05-08 07:30:03 51°15.499 2°53.923 338.8 12.9 335 11.4
2006-05-08 07:30:07 51°15.511 2°53.913 338.6 12.9 335 11.3
2006-05-08 07:30:14 51°15.534 2°53.896 338.4 13 335 11.5
2006-05-08 07:30:18 51°15.547 2°53.886 338.3 13 334 11.5
2006-05-08 07:30:24 51°15.567 2°53.871 338 13 334 11.6
2006-05-08 07:30:27 51°15.577 2°53.863 337.5 13 333 11.8
2006-05-08 07:30:34 51°15.599 2°53.844 336.8 13 332 11.5
2006-05-08 07:30:38 51°15.612 2°53.834 336.1 13 332 11.6
2006-05-08 07:30:44 51°15.631 2°53.818 335.9 13 333 11.7
2006-05-08 07:30:49 51°15.647 2°53.804 335.9 13 332 11.7
2006-05-08 07:30:54 51°15.663 2°53.791 335.7 13 333 11.7
2006-05-08 07:30:58 51°15.676 2°53.781 336 12.9 333 11.8
2006-05-08 07:31:03 51°15.692 2°53.768 336.6 13 334 11.9
2006-05-08 07:31:08 51°15.708 2°53.756 336.9 12.9 334 11.9
2006-05-08 07:31:14 51°15.727 2°53.741 337.1 13 334 11.9
2006-05-08 07:31:18 51°15.74 2°53.73 337 12.9 334 12.1
2006-05-08 07:31:24 51°15.759 2°53.715 336.7 12.9 333 12
2006-05-08 07:31:28 51°15.772 2°53.704 336.2 12.9 332 12
2006-05-08 07:31:34 51°15.791 2°53.689 336 12.9 333 12.2
2006-05-08 07:31:38 51°15.804 2°53.678 335.8 12.9 333 12.2
2006-05-08 07:31:44 51°15.823 2°53.663 335.8 12.9 333 12.3
2006-05-08 07:31:48 51°15.836 2°53.652 336 13 333 12.2
2006-05-08 07:31:54 51°15.855 2°53.637 336.2 13 333 12.3
2006-05-08 07:31:58 51°15.868 2°53.627 336.5 13 333 12.4
2006-05-08 07:32:04 51°15.888 2°53.611 336.5 13 333 12.3
2006-05-08 07:32:08 51°15.901 2°53.601 336.7 13 334 12.4
2006-05-08 07:32:14 51°15.92 2°53.586 336.8 13 334 12.5
2006-05-08 07:32:18 51°15.933 2°53.576 337 12.9 334 12.5
2006-05-08 07:32:23 51°15.949 2°53.563 337.1 13 334 12.6
2006-05-08 07:32:28 51°15.965 2°53.55 337 13 334 12.6
2006-05-08 07:32:32 51°15.978 2°53.541 337.1 12.9 334 12.6
2006-05-08 07:32:36 51°15.991 2°53.531 337.3 13 334 12.6
2006-05-08 07:32:43 51°16.013 2°53.513 337.2 12.9 333 12.6
2006-05-08 07:32:47 51°16.026 2°53.502 336.5 12.9 333 12.6
2006-05-08 07:32:54 51°16.048 2°53.484 336 12.9 333 12.7
2006-05-08 07:32:58 51°16.061 2°53.473 335.9 12.9 333 12.8
2006-05-08 07:33:04 51°16.08 2°53.457 335.7 13 333 12.8
2006-05-08 07:33:08 51°16.093 2°53.447 335.6 12.9 332 12.8
2006-05-08 07:33:14 51°16.112 2°53.431 335.6 12.9 333 12.9
2006-05-08 07:33:18 51°16.125 2°53.421 335.9 12.9 333 12.9
2006-05-08 07:33:24 51°16.144 2°53.405 336.1 12.9 333 13
2006-05-08 07:33:28 51°16.157 2°53.395 336.1 12.9 333 12.9
2006-05-08 07:33:34 51°16.177 2°53.38 336.4 13 334 12.9
2006-05-08 07:33:38 51°16.189 2°53.37 336.6 12.9 334 13
2006-05-08 07:33:44 51°16.209 2°53.355 337.2 12.9 335 13
2006-05-08 07:33:48 51°16.222 2°53.346 337.4 12.9 335 12.9
2006-05-08 07:33:54 51°16.241 2°53.331 337.5 12.9 336 13
2006-05-08 07:33:57 51°16.251 2°53.324 337.5 12.9 335 13
2006-05-08 07:34:04 51°16.274 2°53.308 337.6 12.9 335 13.1
2006-05-08 07:34:08 51°16.287 2°53.298 337.5 12.7 335 13.1
2006-05-08 07:34:14 51°16.306 2°53.284 337.4 12.8 335 13.1
2006-05-08 07:34:18 51°16.319 2°53.274 336.7 12.8 334 13.1
2006-05-08 07:34:24 51°16.338 2°53.259 336.3 12.8 334 13.2
2006-05-08 07:34:28 51°16.351 2°53.249 336 12.8 333 13.2
2006-05-08 07:34:34 51°16.37 2°53.234 335.8 12.8 333 13.1
2006-05-08 07:34:38 51°16.383 2°53.224 335.7 12.8 334 13.1
2006-05-08 07:34:44 51°16.402 2°53.208 335.8 12.8 334 13.2
2006-05-08 07:34:48 51°16.414 2°53.198 335.8 12.8 334 13.1
2006-05-08 07:34:52 51°16.427 2°53.188 335.9 12.8 334 13.3
2006-05-08 07:34:56 51°16.44 2°53.178 336 12.8 334 13.2
2006-05-08 07:35:04 51°16.465 2°53.158 336.3 12.7 333 13.2
2006-05-08 07:35:08 51°16.478 2°53.148 336.3 12.8 334 13.2
2006-05-08 07:35:14 51°16.497 2°53.133 336.2 12.8 333 13.1
2006-05-08 07:35:18 51°16.51 2°53.123 336.1 12.8 333 13.1
2006-05-08 07:35:23 51°16.526 2°53.11 336 12.8 333 13.1
2006-05-08 07:35:27 51°16.538 2°53.1 335.6 12.8 333 13
2006-05-08 07:35:34 51°16.561 2°53.081 335.5 12.8 332 13
2006-05-08 07:35:39 51°16.576 2°53.069 335.7 12.8 333 13
2006-05-08 07:35:44 51°16.592 2°53.056 335.9 12.8 333 12.8
2006-05-08 07:35:48 51°16.605 2°53.046 336.1 12.8 333 12.8
2006-05-08 07:35:52 51°16.618 2°53.036 336 12.8 333 12.7
2006-05-08 07:35:56 51°16.631 2°53.025 336.3 12.9 333 12.8
2006-05-08 07:36:03 51°16.653 2°53.008 336.1 12.8 334 12.8
2006-05-08 07:36:07 51°16.666 2°52.997 336.2 12.8 333 12.8
2006-05-08 07:36:14 51°16.688 2°52.979 336.2 12.8 333 12.7
2006-05-08 07:36:18 51°16.701 2°52.969 336 12.8 333 12.5
2006-05-08 07:36:24 51°16.72 2°52.955 336.2 12.8 333 12.4
2006-05-08 07:36:28 51°16.733 2°52.944 336.4 12.8 333 12.3
2006-05-08 07:36:34 51°16.752 2°52.929 336.5 12.8 333 12.3
2006-05-08 07:36:38 51°16.764 2°52.919 336.2 12.8 333 11.9
2006-05-08 07:36:44 51°16.783 2°52.903 336.1 12.8 333 11.6
2006-05-08 07:36:48 51°16.796 2°52.893 336 12.8 333 11.1
2006-05-08 07:36:52 51°16.808 2°52.883 336.1 12.7 334 10.8
2006-05-08 07:36:55 51°16.818 2°52.875 336.8 12.7 333 10.7
2006-05-08 07:37:04 51°16.847 2°52.853 336.7 12.8 334 10.6
2006-05-08 07:37:08 51°16.86 2°52.844 337.5 12.8 335 10.6
2006-05-08 07:37:11 51°16.869 2°52.837 338.4 12.8 336 10.5
2006-05-08 07:37:18 51°16.892 2°52.821 339.2 12.8 336 10.6
2006-05-08 07:37:24 51°16.911 2°52.807 339.8 12.8 336 10.7
2006-05-08 07:37:28 51°16.924 2°52.797 339.8 12.9 336 10.7
2006-05-08 07:37:32 51°16.937 2°52.788 339.8 12.9 336 10.9
2006-05-08 07:37:38 51°16.956 2°52.774 339.5 12.8 335 10.9
2006-05-08 07:37:44 51°16.976 2°52.759 339.3 12.8 335 11
2006-05-08 07:37:48 51°16.989 2°52.749 338.8 12.9 334 11.1
2006-05-08 07:37:54 51°17.008 2°52.735 338.7 12.9 335 11.3
2006-05-08 07:37:58 51°17.021 2°52.725 338.8 12.9 335 11.3
2006-05-08 07:38:04 51°17.041 2°52.711 338.8 12.9 335 11.5
2006-05-08 07:38:08 51°17.054 2°52.701 338.6 13 335 11.6
2006-05-08 07:38:14 51°17.073 2°52.686 338.5 12.9 334 11.5
2006-05-08 07:38:17 51°17.083 2°52.679 338.5 13 335 11.3
2006-05-08 07:38:24 51°17.106 2°52.662 338.6 13 335 11.1
2006-05-08 07:38:28 51°17.119 2°52.653 339.3 12.9 337 11
2006-05-08 07:38:34 51°17.139 2°52.641 340.8 12.7 338 10.8
2006-05-08 07:38:38 51°17.152 2°52.633 342.4 12.7 339 11
2006-05-08 07:38:44 51°17.172 2°52.622 343.6 12.8 340 11.1
2006-05-08 07:38:47 51°17.183 2°52.616 344 12.9 340 11.1
2006-05-08 07:38:52 51°17.2 2°52.607 344.6 12.9 341 11.2
2006-05-08 07:38:59 51°17.224 2°52.595 345.2 12.9 341 11
2006-05-08 07:39:03 51°17.238 2°52.587 345.4 12.9 341 11.3
2006-05-08 07:39:08 51°17.254 2°52.578 345.4 12.9 342 11.1
2006-05-08 07:39:12 51°17.268 2°52.571 345.2 13 340 11.4
2006-05-08 07:39:16 51°17.282 2°52.563 344.5 12.9 340 11.5
2006-05-08 07:39:24 51°17.309 2°52.547 344 12.9 340 11.6
2006-05-08 07:39:28 51°17.322 2°52.539 344.2 13 340 11.5
2006-05-08 07:39:32 51°17.336 2°52.532 344 13 340 11.5
2006-05-08 07:39:36 51°17.349 2°52.524 344 13 340 11.6
2006-05-08 07:39:43 51°17.373 2°52.51 344 13 340 11.5
2006-05-08 07:39:47 51°17.387 2°52.502 344 13 340 11.7
2006-05-08 07:39:54 51°17.411 2°52.488 343.8 13.1 340 11.6
2006-05-08 07:39:58 51°17.424 2°52.481 343.9 13 340 11.7
2006-05-08 07:40:03 51°17.442 2°52.471 344.1 13.1 341 11.8
2006-05-08 07:40:07 51°17.456 2°52.464 344.7 13 342 11.7
2006-05-08 07:40:14 51°17.48 2°52.452 345.1 13.1 342 11.7
2006-05-08 07:40:19 51°17.497 2°52.444 346.2 13 343 11.7
2006-05-08 07:40:24 51°17.514 2°52.438 348.6 13 346 11.7
2006-05-08 07:40:28 51°17.528 2°52.433 350.3 13 348 11.8
2006-05-08 07:40:32 51°17.543 2°52.429 353 13.1 351 11.8
2006-05-08 07:40:39 51°17.568 2°52.424 354.6 13.1 351 11.9
2006-05-08 07:40:44 51°17.586 2°52.42 355.8 13 353 11.8
2006-05-08 07:40:48 51°17.6 2°52.417 356.9 13 353 11.8
2006-05-08 07:40:54 51°17.621 2°52.414 358.1 13.1 354 11.9
2006-05-08 07:40:58 51°17.636 2°52.411 358.5 13.1 354 11.8
2006-05-08 07:41:04 51°17.657 2°52.408 358.8 13.1 355 11.9
2006-05-08 07:41:08 51°17.672 2°52.406 359.3 13.1 355 11.8
2006-05-08 07:41:12 51°17.686 2°52.404 359.6 13.1 355 11.7
2006-05-08 07:41:19 51°17.712 2°52.4 359.5 13.1 354 11.8
2006-05-08 07:41:23 51°17.726 2°52.397 358.9 13.1 354 11.7
2006-05-08 07:41:28 51°17.744 2°52.394 358.7 13.2 354 11.8
2006-05-08 07:41:32 51°17.758 2°52.392 358.6 13.1 355 11.8
2006-05-08 07:41:39 51°17.784 2°52.388 358.9 13.1 354 11.7
2006-05-08 07:41:43 51°17.798 2°52.386 359.1 13.2 355 11.8
2006-05-08 07:41:47 51°17.813 2°52.384 359.6 13.2 356 11.9
2006-05-08 07:41:54 51°17.838 2°52.38 0.3 13.1 355 11.9
2006-05-08 07:41:56 51°17.845 2°52.38 0.5 13.1 356 11.9
2006-05-08 07:42:04 51°17.874 2°52.377 1 13.1 356 11.9
2006-05-08 07:42:08 51°17.889 2°52.376 1 13.2 357 12
2006-05-08 07:42:12 51°17.903 2°52.374 1.4 13.1 356 12
2006-05-08 07:42:16 51°17.918 2°52.372 1.1 13.1 356 11.9
2006-05-08 07:42:23 51°17.943 2°52.369 0.8 13.1 355 12
2006-05-08 07:42:27 51°17.958 2°52.367 0.2 13.1 355 12
2006-05-08 07:42:34 51°17.983 2°52.364 0.1 13.2 355 12
2006-05-08 07:42:38 51°17.998 2°52.362 -999 13.2 355 12
2006-05-08 07:42:44 51°18.02 2°52.359 359.8 13.2 355 12
2006-05-08 07:42:48 51°18.034 2°52.356 359.5 13.2 354 12.1
2006-05-08 07:42:52 51°18.048 2°52.354 359.4 13.1 355 12.1
2006-05-08 07:42:59 51°18.074 2°52.351 359.4 13.2 355 12.1
2006-05-08 07:43:04 51°18.092 2°52.35 0.1 13.2 358 12.1
2006-05-08 07:43:08 51°18.107 2°52.349 1.9 13.2 358 12.1
2006-05-08 07:43:14 51°18.129 2°52.349 3.1 13.1 359 12.1
2006-05-08 07:43:19 51°18.147 2°52.349 4 13.2 -999 12.2
2006-05-08 07:43:24 51°18.165 2°52.349 4.5 13.2 -999 12.2
2006-05-08 07:43:27 51°18.176 2°52.349 5 13.1 -999 12.3
2006-05-08 07:43:34 51°18.202 2°52.35 5.6 13.2 1 12.3
2006-05-08 07:43:39 51°18.22 2°52.351 5.9 13.1 1 12.2
2006-05-08 07:43:44 51°18.238 2°52.352 6.5 13.2 1 12.4
2006-05-08 07:43:48 51°18.253 2°52.352 6.5 13.1 2 12.4
2006-05-08 07:43:54 51°18.275 2°52.353 6.6 13.1 2 12.4
2006-05-08 07:43:58 51°18.29 2°52.354 6.8 13.1 1 12.4
2006-05-08 07:44:04 51°18.311 2°52.355 6.8 13.1 2 12.5
2006-05-08 07:44:08 51°18.326 2°52.355 6.5 13.1 -999 12.5
2006-05-08 07:44:14 51°18.348 2°52.356 5.8 13.2 2 12.6
2006-05-08 07:44:18 51°18.362 2°52.356 5.9 13.2 -999 12.6
2006-05-08 07:44:24 51°18.384 2°52.356 5.4 13.2 1 12.7
2006-05-08 07:44:28 51°18.399 2°52.356 5.7 13.2 -999 12.8
2006-05-08 07:44:34 51°18.42 2°52.357 5.4 13.1 -999 12.7
2006-05-08 07:44:35 51°18.424 2°52.356 5.1 13.1 -999 12.7
2006-05-08 07:44:44 51°18.457 2°52.356 4.7 13.2 359 12.8
2006-05-08 07:44:47 51°18.468 2°52.356 4.4 13.2 359 12.8
2006-05-08 07:44:54 51°18.494 2°52.355 4.3 13.2 359 12.9
2006-05-08 07:44:59 51°18.512 2°52.355 4.3 13.2 359 12.9
2006-05-08 07:45:04 51°18.53 2°52.355 4.4 13.1 -999 13
2006-05-08 07:45:07 51°18.541 2°52.355 4.6 13.1 -999 13
2006-05-08 07:45:14 51°18.567 2°52.355 4.9 13.2 -999 13.1
2006-05-08 07:45:17 51°18.578 2°52.355 5 13.2 -999 13.1
2006-05-08 07:45:24 51°18.603 2°52.356 5.4 13.2 1 13.1
2006-05-08 07:45:28 51°18.618 2°52.356 5.5 13.2 1 13.2
2006-05-08 07:45:31 51°18.629 2°52.356 5.6 13.2 1 13.2
2006-05-08 07:45:39 51°18.658 2°52.356 5.7 13.2 -999 13.3
2006-05-08 07:45:44 51°18.677 2°52.356 5.3 13.3 -999 13.2
2006-05-08 07:45:47 51°18.688 2°52.356 5 13.2 359 13.5
2006-05-08 07:45:54 51°18.713 2°52.356 4.3 13.2 359 13.4
2006-05-08 07:45:59 51°18.731 2°52.355 4.3 13.2 359 13.5
2006-05-08 07:46:04 51°18.75 2°52.355 4.1 13.3 359 13.6
2006-05-08 07:46:07 51°18.761 2°52.355 4 13.2 359 13.8
2006-05-08 07:46:14 51°18.786 2°52.354 4.2 13.2 -999 13.7
2006-05-08 07:46:17 51°18.798 2°52.354 4.3 13.2 -999 13.9
2006-05-08 07:46:24 51°18.823 2°52.354 4.5 13.2 1 13.9
2006-05-08 07:46:27 51°18.834 2°52.355 5 13.2 1 14
2006-05-08 07:46:34 51°18.86 2°52.355 5.4 13.2 1 14
2006-05-08 07:46:38 51°18.875 2°52.356 5.8 13.3 -999 14.2
2006-05-08 07:46:44 51°18.897 2°52.356 5.4 13.3 1 14.3
2006-05-08 07:46:48 51°18.911 2°52.356 5.2 13.3 -999 14.3
2006-05-08 07:46:54 51°18.933 2°52.356 5.1 13.3 1 14.4
2006-05-08 07:46:58 51°18.948 2°52.356 5.2 13.3 -999 14.4
2006-05-08 07:47:04 51°18.97 2°52.356 5.1 13.2 -999 14.5
2006-05-08 07:47:08 51°18.985 2°52.356 4.8 13.2 359 14.7
2006-05-08 07:47:14 51°19.007 2°52.355 4.1 13.2 359 14.9
2006-05-08 07:47:18 51°19.021 2°52.355 4 13.2 -999 14.9
2006-05-08 07:47:24 51°19.044 2°52.355 4.1 13.2 359 14.9
2006-05-08 07:47:29 51°19.062 2°52.354 4.2 13.2 359 15
2006-05-08 07:47:34 51°19.08 2°52.354 4.3 13.2 359 15.1
2006-05-08 07:47:38 51°19.095 2°52.354 4.3 13.2 359 15.2
2006-05-08 07:47:44 51°19.117 2°52.354 4.3 13.3 -999 15.3
2006-05-08 07:47:49 51°19.136 2°52.353 4.3 13.2 359 15.3
2006-05-08 07:47:54 51°19.154 2°52.353 4.4 13.3 -999 15.4
2006-05-08 07:47:58 51°19.169 2°52.353 4.5 13.3 -999 15.4
2006-05-08 07:48:04 51°19.191 2°52.353 4.7 13.3 -999 15.6
2006-05-08 07:48:09 51°19.21 2°52.353 4.9 13.3 -999 15.6
2006-05-08 07:48:14 51°19.228 2°52.353 4.8 13.3 -999 15.8
2006-05-08 07:48:18 51°19.243 2°52.353 4.6 13.3 359 15.9
2006-05-08 07:48:24 51°19.265 2°52.352 4.1 13.3 359 16
2006-05-08 07:48:29 51°19.284 2°52.351 3.9 13.4 359 16.2
2006-05-08 07:48:34 51°19.302 2°52.351 3.6 13.3 359 16.2
2006-05-08 07:48:38 51°19.317 2°52.35 3.6 13.3 359 16.2
2006-05-08 07:48:44 51°19.339 2°52.349 3.6 13.4 359 16.4
2006-05-08 07:48:48 51°19.354 2°52.349 3.7 13.4 359 16.4
2006-05-08 07:48:54 51°19.377 2°52.348 3.7 13.4 359 16.4
2006-05-08 07:48:57 51°19.388 2°52.348 4 13.4 359 16.6
2006-05-08 07:49:04 51°19.413 2°52.347 3.9 13.4 359 16.6
2006-05-08 07:49:07 51°19.425 2°52.347 3.8 13.4 359 16.6
2006-05-08 07:49:14 51°19.451 2°52.346 3.6 13.4 359 16.6
2006-05-08 07:49:17 51°19.462 2°52.345 3.6 13.4 358 16.7
2006-05-08 07:49:24 51°19.487 2°52.344 3.1 13.4 358 16.8
2006-05-08 07:49:28 51°19.502 2°52.343 3 13.4 358 16.8
2006-05-08 07:49:34 51°19.525 2°52.341 2.5 13.4 358 16.8
2006-05-08 07:49:39 51°19.543 2°52.341 2.6 13.4 358 16.9
2006-05-08 07:49:44 51°19.562 2°52.34 3.2 13.4 359 16.8
2006-05-08 07:49:48 51°19.577 2°52.34 3.4 13.4 359 16.9
2006-05-08 07:49:54 51°19.599 2°52.339 3.7 13.4 359 16.8
2006-05-08 07:49:58 51°19.614 2°52.339 4.1 13.4 359 17.1
2006-05-08 07:50:04 51°19.636 2°52.339 4.6 13.3 359 16.9
2006-05-08 07:50:08 51°19.65 2°52.338 4.7 13.3 359 16.9
2006-05-08 07:50:12 51°19.665 2°52.338 4.3 13.4 359 17.1
2006-05-08 07:50:18 51°19.688 2°52.338 4.2 13.4 359 17.3
2006-05-08 07:50:24 51°19.71 2°52.337 4 13.4 359 17.1
2006-05-08 07:50:28 51°19.725 2°52.337 4.1 13.4 -999 17.2
2006-05-08 07:50:34 51°19.747 2°52.337 4.3 13.4 359 17.3
2006-05-08 07:50:38 51°19.762 2°52.337 4.3 13.4 -999 17.3
2006-05-08 07:50:44 51°19.784 2°52.337 4.4 13.5 -999 17.4
2006-05-08 07:50:48 51°19.799 2°52.337 4.6 13.4 -999 17.5
2006-05-08 07:50:54 51°19.821 2°52.336 4.7 13.3 -999 17.5
2006-05-08 07:50:58 51°19.836 2°52.336 4.6 13.4 -999 17.3
2006-05-08 07:51:04 51°19.859 2°52.337 4.8 13.4 -999 17.4
2006-05-08 07:51:08 51°19.873 2°52.337 4.8 13.4 -999 17.5
2006-05-08 07:51:14 51°19.896 2°52.336 4.8 13.3 359 17.4
2006-05-08 07:51:18 51°19.911 2°52.335 4.1 13.3 359 17.4
2006-05-08 07:51:24 51°19.933 2°52.335 3.7 13.4 359 17.5
2006-05-08 07:51:28 51°19.948 2°52.334 3.5 13.4 359 17.5
2006-05-08 07:51:32 51°19.962 2°52.334 3.6 13.5 359 17.4
2006-05-08 07:51:39 51°19.989 2°52.333 3.8 13.5 359 17.5
2006-05-08 07:51:44 51°20.007 2°52.333 3.6 13.5 -999 17.4
2006-05-08 07:51:48 51°20.022 2°52.333 4.3 13.4 -999 17.5
2006-05-08 07:51:52 51°20.037 2°52.333 4.5 13.5 -999 17.5
2006-05-08 07:51:58 51°20.06 2°52.333 4.6 13.4 -999 17.6
2006-05-08 07:52:04 51°20.082 2°52.333 4.4 13.5 -999 17.5
2006-05-08 07:52:08 51°20.097 2°52.333 4.3 13.5 -999 17.5
2006-05-08 07:52:12 51°20.112 2°52.333 4.4 13.5 -999 17.6
2006-05-08 07:52:19 51°20.138 2°52.332 4.2 13.4 -999 17.7
2006-05-08 07:52:23 51°20.153 2°52.332 4 13.4 359 17.5
2006-05-08 07:52:28 51°20.172 2°52.331 3.6 13.4 359 17.5
2006-05-08 07:52:32 51°20.187 2°52.33 3.2 13.5 359 17.6
2006-05-08 07:52:38 51°20.209 2°52.33 3.4 13.3 -999 17.6
2006-05-08 07:52:44 51°20.231 2°52.33 3.9 13.4 359 17.5
2006-05-08 07:52:47 51°20.242 2°52.33 4.2 13.4 -999 17.4
2006-05-08 07:52:54 51°20.268 2°52.33 4.6 13.4 -999 17.5
2006-05-08 07:52:58 51°20.283 2°52.33 4.7 13.4 -999 17.4
2006-05-08 07:53:04 51°20.305 2°52.33 4.5 13.4 -999 17.4
2006-05-08 07:53:08 51°20.321 2°52.33 4.4 13.5 -999 17.3
2006-05-08 07:53:12 51°20.336 2°52.33 4.3 13.4 -999 17.3
2006-05-08 07:53:15 51°20.347 2°52.329 4.1 13.5 359 17.1
2006-05-08 07:53:24 51°20.38 2°52.329 3.7 13.5 -999 17
2006-05-08 07:53:28 51°20.396 2°52.329 3.9 13.5 -999 17
2006-05-08 07:53:31 51°20.407 2°52.329 4.4 13.5 -999 16.7
2006-05-08 07:53:38 51°20.433 2°52.33 4.7 13.4 1 16.6
2006-05-08 07:53:44 51°20.455 2°52.331 5.2 13.5 1 16.5
2006-05-08 07:53:48 51°20.47 2°52.331 5 13.5 -999 16.4
2006-05-08 07:53:54 51°20.493 2°52.331 4.8 13.4 -999 16.2
2006-05-08 07:53:58 51°20.508 2°52.331 4.5 13.5 -999 16.1
2006-05-08 07:54:04 51°20.53 2°52.331 4.5 13.5 1 16
2006-05-08 07:54:08 51°20.545 2°52.331 4.7 13.4 -999 15.9
2006-05-08 07:54:12 51°20.56 2°52.332 4.6 13.5 -999 15.8
2006-05-08 07:54:18 51°20.582 2°52.332 4.3 13.5 -999 15.9
2006-05-08 07:54:24 51°20.604 2°52.332 4.3 13.4 -999 15.8
2006-05-08 07:54:28 51°20.619 2°52.332 3.8 13.4 -999 15.8
2006-05-08 07:54:32 51°20.634 2°52.332 4.3 13.4 -999 15.7
2006-05-08 07:54:39 51°20.66 2°52.332 4.5 13.4 1 15.4
2006-05-08 07:54:44 51°20.679 2°52.333 4.4 13.4 -999 15.6
2006-05-08 07:54:48 51°20.694 2°52.334 4.5 13.4 1 15.8
2006-05-08 07:54:51 51°20.705 2°52.334 5 13.5 -999 15.7
2006-05-08 07:54:59 51°20.735 2°52.334 4.6 13.5 -999 15.7
2006-05-08 07:55:04 51°20.753 2°52.334 4.4 13.4 1 15.8
2006-05-08 07:55:08 51°20.769 2°52.335 4.3 13.5 -999 15.7
2006-05-08 07:55:11 51°20.78 2°52.335 4.4 13.5 1 15.7
2006-05-08 07:55:18 51°20.806 2°52.336 4.8 13.5 1 15.7
2006-05-08 07:55:24 51°20.828 2°52.336 5 13.5 1 15.7
2006-05-08 07:55:28 51°20.843 2°52.337 4.9 13.5 1 15.8
2006-05-08 07:55:34 51°20.866 2°52.337 4.6 13.4 1 15.8
2006-05-08 07:55:38 51°20.881 2°52.338 4.8 13.4 1 15.9
2006-05-08 07:55:44 51°20.903 2°52.339 4.7 13.5 1 16
2006-05-08 07:55:49 51°20.922 2°52.339 5 13.5 2 16.2
2006-05-08 07:55:54 51°20.94 2°52.34 5.4 13.5 2 16.1
2006-05-08 07:55:58 51°20.955 2°52.341 5.4 13.4 2 16.3
2006-05-08 07:56:04 51°20.977 2°52.341 5.5 13.4 1 16.3
2006-05-08 07:56:09 51°20.997 2°52.342 5.2 13.4 1 16.3
2006-05-08 07:56:14 51°21.014 2°52.342 4.8 13.3 1 16.8
2006-05-08 07:56:19 51°21.033 2°52.342 4.4 13.3 -999 17
2006-05-08 07:56:24 51°21.052 2°52.342 4.2 13.4 -999 17.3
2006-05-08 07:56:27 51°21.063 2°52.342 4.2 13.4 -999 17.2
2006-05-08 07:56:34 51°21.089 2°52.343 4.3 13.5 -999 17.5
2006-05-08 07:56:39 51°21.108 2°52.343 4.4 13.5 -999 17.8
2006-05-08 07:56:44 51°21.127 2°52.342 4.8 13.4 359 17.6
2006-05-08 07:56:49 51°21.146 2°52.342 4.7 13.5 -999 17.8
2006-05-08 07:56:54 51°21.164 2°52.342 4.2 13.5 -999 17.9
2006-05-08 07:56:59 51°21.182 2°52.342 4.3 13.4 -999 18.3
2006-05-08 07:57:04 51°21.201 2°52.342 4.8 13.3 -999 18.2
2006-05-08 07:57:08 51°21.216 2°52.342 5 13.3 -999 18.3
2006-05-08 07:57:12 51°21.231 2°52.342 5 13.4 -999 18.5
2006-05-08 07:57:19 51°21.257 2°52.343 4.8 13.4 -999 18.7
2006-05-08 07:57:24 51°21.275 2°52.343 4.9 13.5 1 18.8
2006-05-08 07:57:28 51°21.29 2°52.343 5 13.5 1 19
2006-05-08 07:57:30 51°21.298 2°52.343 5 13.5 1 19
2006-05-08 07:57:38 51°21.328 2°52.344 5.3 13.5 1 19.4
2006-05-08 07:57:44 51°21.35 2°52.345 5.4 13.5 1 19.2
2006-05-08 07:57:48 51°21.365 2°52.345 5 13.5 1 19.4
2006-05-08 07:57:54 51°21.387 2°52.346 5 13.3 1 19.7
2006-05-08 07:57:59 51°21.406 2°52.345 4.7 13.4 -999 19.6
2006-05-08 07:58:04 51°21.424 2°52.346 4.3 13.4 -999 19.8
2006-05-08 07:58:09 51°21.443 2°52.345 4.2 13.4 359 20.1
2006-05-08 07:58:14 51°21.462 2°52.346 3.9 13.3 -999 20.1
2006-05-08 07:58:18 51°21.477 2°52.346 4.2 13.4 -999 20.4
2006-05-08 07:58:24 51°21.499 2°52.346 4 13.3 1 20.7
2006-05-08 07:58:28 51°21.513 2°52.346 4.4 13.3 -999 20.8
2006-05-08 07:58:34 51°21.536 2°52.346 4.3 13.4 -999 21.1
2006-05-08 07:58:38 51°21.551 2°52.346 4 13.4 -999 21.5
2006-05-08 07:58:44 51°21.573 2°52.346 3.7 13.3 -999 21.6
2006-05-08 07:58:48 51°21.588 2°52.345 3.6 13.3 359 21.7
2006-05-08 07:58:54 51°21.61 2°52.346 3.4 13.4 -999 22.1
2006-05-08 07:58:59 51°21.629 2°52.346 3.6 13.4 -999 22.1
2006-05-08 07:59:04 51°21.647 2°52.346 3.5 13.4 -999 22.4
2006-05-08 07:59:08 51°21.662 2°52.346 3.5 13.4 -999 22.6
2006-05-08 07:59:13 51°21.681 2°52.346 3.9 13.5 -999 22.8
2006-05-08 07:59:18 51°21.699 2°52.346 3.9 13.4 -999 23
2006-05-08 07:59:24 51°21.722 2°52.345 3.6 13.3 -999 23.2
2006-05-08 07:59:29 51°21.741 2°52.345 3.6 13.3 -999 23.5
2006-05-08 07:59:34 51°21.759 2°52.345 3.5 13.3 -999 23.8
2006-05-08 07:59:39 51°21.777 2°52.345 3.2 13.4 -999 24
2006-05-08 07:59:44 51°21.796 2°52.345 3.3 13.4 -999 24.1
2006-05-08 07:59:48 51°21.811 2°52.345 3.6 13.5 -999 24.3
2006-05-08 07:59:54 51°21.833 2°52.344 3.5 13.5 -999 24.5
2006-05-08 07:59:59 51°21.852 2°52.344 3.4 13.4 359 24.7
2006-05-08 08:00:04 51°21.87 2°52.344 3.6 13.4 -999 24.9
2006-05-08 08:00:09 51°21.889 2°52.343 3.4 13.4 359 25.2
2006-05-08 08:00:14 51°21.907 2°52.343 3.3 13.5 -999 25.2
2006-05-08 08:00:19 51°21.926 2°52.343 3.3 13.5 -999 25.2
2006-05-08 08:00:24 51°21.945 2°52.344 3.6 13.6 -999 25.3
2006-05-08 08:00:29 51°21.964 2°52.344 3.7 13.6 -999 25.4
2006-05-08 08:00:31 51°21.971 2°52.344 4.1 13.5 1 25.3
2006-05-08 08:00:39 51°22.002 2°52.345 4.4 13.5 -999 25.3
2006-05-08 08:00:43 51°22.017 2°52.345 4.8 13.5 1 25.3
2006-05-08 08:00:47 51°22.031 2°52.345 4.3 13.4 -999 25.3
2006-05-08 08:00:54 51°22.058 2°52.346 4.3 13.5 -999 25.3
2006-05-08 08:00:59 51°22.076 2°52.344 3.8 13.5 359 25.4
2006-05-08 08:01:03 51°22.091 2°52.344 3.6 13.5 359 25.2
2006-05-08 08:01:08 51°22.11 2°52.344 3.1 13.4 -999 25.1
2006-05-08 08:01:14 51°22.132 2°52.344 3.4 13.5 359 25.2
2006-05-08 08:01:18 51°22.147 2°52.344 3.2 13.5 -999 25.2
2006-05-08 08:01:24 51°22.17 2°52.344 3.6 13.5 -999 25.2
2006-05-08 08:01:28 51°22.185 2°52.344 3.7 13.5 -999 25.3
2006-05-08 08:01:34 51°22.207 2°52.343 3.7 13.5 -999 25.3
2006-05-08 08:01:38 51°22.222 2°52.343 3.6 13.5 359 25.5
2006-05-08 08:01:43 51°22.241 2°52.344 3.6 13.5 1 25.2
2006-05-08 08:01:47 51°22.256 2°52.343 3.7 13.5 359 25.2
2006-05-08 08:01:54 51°22.282 2°52.343 3.5 13.5 -999 25.2
2006-05-08 08:01:57 51°22.294 2°52.343 3.3 13.5 359 25.2
2006-05-08 08:02:04 51°22.319 2°52.342 3.1 13.6 -999 25.1
2006-05-08 08:02:09 51°22.338 2°52.342 3.4 13.6 359 24.9
2006-05-08 08:02:10 51°22.342 2°52.342 3.6 13.5 -999 24.7
2006-05-08 08:02:19 51°22.376 2°52.342 3.7 13.6 -999 24.6
2006-05-08 08:02:24 51°22.394 2°52.342 3.7 13.6 -999 24.6
2006-05-08 08:02:28 51°22.409 2°52.342 3.7 13.5 -999 24.4
2006-05-08 08:02:34 51°22.432 2°52.342 3.7 13.5 -999 24.4
2006-05-08 08:02:39 51°22.451 2°52.342 3.5 13.5 -999 24
2006-05-08 08:02:44 51°22.469 2°52.341 3.4 13.5 359 24.3
2006-05-08 08:02:47 51°22.481 2°52.341 3.5 13.5 -999 24.3
2006-05-08 08:02:54 51°22.507 2°52.341 3.6 13.5 -999 23.9
2006-05-08 08:02:59 51°22.525 2°52.342 4.1 13.4 1 24.3
2006-05-08 08:03:03 51°22.54 2°52.343 4.3 13.4 1 24.2
2006-05-08 08:03:07 51°22.555 2°52.343 4.7 13.5 2 24.2
2006-05-08 08:03:14 51°22.581 2°52.343 5 13.4 2 24.4
2006-05-08 08:03:19 51°22.6 2°52.344 4.6 13.4 1 24.2
2006-05-08 08:03:24 51°22.618 2°52.344 4.3 13.5 1 24.1
2006-05-08 08:03:28 51°22.633 2°52.344 4.2 13.6 1 24.1
2006-05-08 08:03:34 51°22.656 2°52.345 4.9 13.5 2 24.2
2006-05-08 08:03:39 51°22.674 2°52.346 4.6 13.4 2 23.9
2006-05-08 08:03:44 51°22.693 2°52.347 4.8 13.5 1 24.4
2006-05-08 08:03:47 51°22.704 2°52.347 4.8 13.5 1 24.4
2006-05-08 08:03:54 51°22.731 2°52.348 4.4 13.4 1 24.3
2006-05-08 08:03:58 51°22.746 2°52.348 4.6 13.5 1 23.9
2006-05-08 08:04:04 51°22.768 2°52.349 4.6 13.6 1 23.6
2006-05-08 08:04:08 51°22.783 2°52.35 4.7 13.5 2 22.2
2006-05-08 08:04:14 51°22.806 2°52.351 4.8 13.6 1 24.9
2006-05-08 08:04:18 51°22.821 2°52.351 4.8 13.6 1 25.3
2006-05-08 08:04:23 51°22.84 2°52.352 4.6 13.6 1 25.3
2006-05-08 08:04:27 51°22.854 2°52.352 4.3 13.5 -999 25.1
2006-05-08 08:04:34 51°22.881 2°52.353 4 13.6 -999 25.2
2006-05-08 08:04:39 51°22.9 2°52.354 4.6 13.6 2 25.1
2006-05-08 08:04:43 51°22.915 2°52.355 4.6 13.6 2 24.8
2006-05-08 08:04:47 51°22.93 2°52.356 4.8 13.7 1 24.9
2006-05-08 08:04:54 51°22.956 2°52.356 4.4 13.6 1 24.9
2006-05-08 08:04:59 51°22.976 2°52.356 4.2 13.6 1 24.4
2006-05-08 08:05:03 51°22.991 2°52.356 3.9 13.6 -999 23.3
2006-05-08 08:05:09 51°23.013 2°52.357 3.6 13.6 -999 24.2
2006-05-08 08:05:14 51°23.032 2°52.357 3.9 13.6 1 24.7
2006-05-08 08:05:18 51°23.047 2°52.358 4 13.6 1 24.6
2006-05-08 08:05:24 51°23.07 2°52.358 3.8 13.6 1 25
2006-05-08 08:05:28 51°23.085 2°52.358 3.8 13.6 1 24.7
2006-05-08 08:05:34 51°23.108 2°52.359 3.9 13.6 1 24.4
2006-05-08 08:05:39 51°23.126 2°52.359 4.1 13.6 1 23.9
2006-05-08 08:05:43 51°23.142 2°52.36 4.3 13.6 1 22.8
2006-05-08 08:05:48 51°23.161 2°52.36 4.3 13.7 1 21.3
2006-05-08 08:05:54 51°23.184 2°52.361 4.4 13.7 1 24.1
2006-05-08 08:05:59 51°23.202 2°52.362 4.3 13.7 1 24.2
2006-05-08 08:06:04 51°23.221 2°52.362 4.3 13.6 1 23.9
2006-05-08 08:06:08 51°23.237 2°52.362 3.9 13.7 1 22.8
2006-05-08 08:06:14 51°23.259 2°52.363 3.8 13.7 1 22.5
2006-05-08 08:06:19 51°23.278 2°52.364 3.8 13.8 1 22.6
2006-05-08 08:06:24 51°23.297 2°52.364 4.3 13.7 1 21.3
2006-05-08 08:06:29 51°23.317 2°52.365 4.3 13.8 1 21.9
2006-05-08 08:06:34 51°23.335 2°52.365 4.1 13.8 1 22.1
2006-05-08 08:06:38 51°23.351 2°52.366 4.3 13.7 1 22.2
2006-05-08 08:06:43 51°23.37 2°52.366 4.5 13.8 1 22.3
2006-05-08 08:06:48 51°23.389 2°52.366 4.2 13.7 -999 21.4
2006-05-08 08:06:54 51°23.412 2°52.368 4.3 13.8 1 21.9
2006-05-08 08:06:59 51°23.431 2°52.368 4.3 13.8 1 22.3
2006-05-08 08:07:04 51°23.45 2°52.369 4.4 13.8 2 20.2
2006-05-08 08:07:09 51°23.47 2°52.37 4.8 13.8 1 21.2
2006-05-08 08:07:14 51°23.488 2°52.371 5 13.8 2 21.4
2006-05-08 08:07:19 51°23.507 2°52.371 4.3 13.9 1 21.2
2006-05-08 08:07:24 51°23.527 2°52.371 4.2 13.8 1 20.7
2006-05-08 08:07:29 51°23.546 2°52.373 3.8 13.7 1 20.7
2006-05-08 08:07:34 51°23.565 2°52.373 3.8 13.9 1 20.6
2006-05-08 08:07:39 51°23.584 2°52.374 3.7 13.9 2 19.9
2006-05-08 08:07:43 51°23.599 2°52.374 3.9 13.9 -999 18.7
2006-05-08 08:07:48 51°23.619 2°52.375 3.8 13.8 2 19.2
2006-05-08 08:07:54 51°23.642 2°52.376 4.3 13.8 1 18.2
2006-05-08 08:07:59 51°23.661 2°52.377 4.3 13.8 1 18.2
2006-05-08 08:08:04 51°23.68 2°52.377 3.8 13.8 2 18.2
2006-05-08 08:08:09 51°23.7 2°52.378 4 13.9 1 18.5
2006-05-08 08:08:14 51°23.718 2°52.379 3.9 13.9 1 18.5
2006-05-08 08:08:19 51°23.738 2°52.38 4.2 13.8 1 18.2
2006-05-08 08:08:24 51°23.757 2°52.38 3.9 13.8 1 17.4
2006-05-08 08:08:28 51°23.772 2°52.38 3.7 13.7 1 17.3
2006-05-08 08:08:32 51°23.788 2°52.381 3.8 13.8 2 17.3
2006-05-08 08:08:37 51°23.807 2°52.383 4.3 13.8 2 18
2006-05-08 08:08:44 51°23.834 2°52.384 4.8 13.9 2 18.3
2006-05-08 08:08:49 51°23.853 2°52.385 4.6 13.8 1 17.3
2006-05-08 08:08:54 51°23.872 2°52.385 4.3 13.7 1 16.9
2006-05-08 08:08:58 51°23.887 2°52.386 3.5 13.8 1 18
2006-05-08 08:09:03 51°23.906 2°52.386 3.6 13.8 1 18.6
2006-05-08 08:09:08 51°23.925 2°52.386 3.6 13.8 -999 18.8
2006-05-08 08:09:13 51°23.945 2°52.386 3.4 13.7 -999 19.2
2006-05-08 08:09:18 51°23.963 2°52.386 3.2 13.6 359 19.4
2006-05-08 08:09:23 51°23.982 2°52.386 3.1 13.6 -999 19.7
2006-05-08 08:09:27 51°23.997 2°52.385 2.9 13.4 359 19.9
2006-05-08 08:09:34 51°24.023 2°52.386 2.9 13.4 1 20
2006-05-08 08:09:39 51°24.042 2°52.386 3.7 13.4 1 20.3
2006-05-08 08:09:43 51°24.057 2°52.387 4.5 13.4 1 20.4
2006-05-08 08:09:47 51°24.072 2°52.387 4.6 13.3 359 20.6
2006-05-08 08:09:54 51°24.098 2°52.386 4 13.3 359 20.3
2006-05-08 08:09:59 51°24.116 2°52.387 3.7 13.3 1 19.3
2006-05-08 08:10:03 51°24.13 2°52.388 4.5 13.2 2 18.2
2006-05-08 08:10:07 51°24.145 2°52.389 5.3 13.3 3 19
2006-05-08 08:10:14 51°24.171 2°52.391 5.7 13.2 3 19.6
2006-05-08 08:10:19 51°24.189 2°52.393 5.9 13.1 4 20.2
2006-05-08 08:10:23 51°24.204 2°52.394 6.3 13.2 2 20.8
2006-05-08 08:10:27 51°24.218 2°52.395 5.9 13.3 1 21
2006-05-08 08:10:34 51°24.244 2°52.394 4.6 13.2 -999 20.1
2006-05-08 08:10:39 51°24.262 2°52.394 3.6 13.1 -999 19.1
2006-05-08 08:10:43 51°24.277 2°52.393 3 13.1 359 19.8
2006-05-08 08:10:48 51°24.295 2°52.393 3.6 13.2 -999 20.2
2006-05-08 08:10:54 51°24.317 2°52.395 3.7 13.3 2 19.5
2006-05-08 08:10:55 51°24.32 2°52.395 5 13.2 1 20.4
2006-05-08 08:11:04 51°24.354 2°52.396 5.3 13.3 2 20.6
2006-05-08 08:11:09 51°24.373 2°52.396 5 13.3 2 20.6
2006-05-08 08:11:14 51°24.391 2°52.397 5 13.3 2 20.7
2006-05-08 08:11:19 51°24.409 2°52.398 4.5 13.2 2 20.4
2006-05-08 08:11:24 51°24.428 2°52.399 5.4 13.3 2 20
2006-05-08 08:11:28 51°24.442 2°52.399 5.7 13.4 1 20.2
2006-05-08 08:11:31 51°24.453 2°52.4 5.2 13.4 1 20.2
2006-05-08 08:11:39 51°24.483 2°52.401 5.1 13.3 1 19.3
2006-05-08 08:11:44 51°24.502 2°52.401 4.7 13.3 1 18.5
2006-05-08 08:11:49 51°24.521 2°52.403 4.3 13.3 1 19.3
2006-05-08 08:11:54 51°24.539 2°52.403 4.3 13.4 1 20.4
2006-05-08 08:11:59 51°24.557 2°52.404 4.1 13.4 1 20.5
2006-05-08 08:12:03 51°24.572 2°52.404 4.3 13.3 -999 20.7
2006-05-08 08:12:07 51°24.587 2°52.404 4.2 13.3 -999 20.3
2006-05-08 08:12:14 51°24.613 2°52.404 3.7 13.3 -999 21.1
2006-05-08 08:12:19 51°24.631 2°52.404 3.6 13.4 -999 21.1
2006-05-08 08:12:23 51°24.646 2°52.404 3.8 13.3 -999 21.8
2006-05-08 08:12:27 51°24.661 2°52.405 4.3 13.3 -999 22.5
2006-05-08 08:12:34 51°24.687 2°52.404 4.1 13.4 -999 22
2006-05-08 08:12:39 51°24.705 2°52.403 3.6 13.4 359 22.4
2006-05-08 08:12:43 51°24.72 2°52.403 3.1 13.3 359 22.7
2006-05-08 08:12:47 51°24.735 2°52.403 3.1 13.3 1 23.1
2006-05-08 08:12:54 51°24.761 2°52.404 4.3 13.3 1 23.3
2006-05-08 08:12:59 51°24.78 2°52.405 4.6 13.4 1 23.7
2006-05-08 08:13:03 51°24.794 2°52.405 4.9 13.3 2 23.8
2006-05-08 08:13:08 51°24.813 2°52.407 5.3 13.4 3 24
2006-05-08 08:13:13 51°24.831 2°52.407 5.9 13.3 2 24.3
2006-05-08 08:13:19 51°24.854 2°52.409 6.2 13.3 2 24.4
2006-05-08 08:13:24 51°24.872 2°52.409 5.2 13.3 1 24.8
2006-05-08 08:13:27 51°24.883 2°52.41 5 13.3 2 25
2006-05-08 08:13:34 51°24.909 2°52.41 4.8 13.3 -999 25.1
2006-05-08 08:13:39 51°24.927 2°52.411 4.5 13.4 1 25.3
2006-05-08 08:13:43 51°24.942 2°52.41 4.5 13.4 -999 25.3
2006-05-08 08:13:47 51°24.957 2°52.411 4.2 13.4 -999 25.6
2006-05-08 08:13:54 51°24.983 2°52.41 3.4 13.4 -999 25.5
2006-05-08 08:13:59 51°25.002 2°52.41 3.3 13.4 -999 25.7
2006-05-08 08:14:03 51°25.017 2°52.411 3.5 13.3 -999 25.7
2006-05-08 08:14:07 51°25.031 2°52.411 3.8 13.3 1 25.8
2006-05-08 08:14:14 51°25.057 2°52.411 4.2 13.5 1 26.1
2006-05-08 08:14:19 51°25.076 2°52.411 3.7 13.2 -999 26.2
2006-05-08 08:14:23 51°25.09 2°52.411 3.4 13.4 359 26.1
2006-05-08 08:14:27 51°25.105 2°52.411 3.2 13.4 -999 26.2
2006-05-08 08:14:34 51°25.131 2°52.411 3.5 13.3 1 26.2
2006-05-08 08:14:39 51°25.15 2°52.412 3.7 13.4 1 26.2
2006-05-08 08:14:44 51°25.169 2°52.413 3.8 13.5 2 26.3
2006-05-08 08:14:48 51°25.183 2°52.412 4.3 13.5 1 26
2006-05-08 08:14:54 51°25.206 2°52.413 5 13.5 1 26
2006-05-08 08:14:59 51°25.224 2°52.414 4.7 13.4 1 25.7
2006-05-08 08:15:03 51°25.239 2°52.415 4.4 13.4 1 25.6
2006-05-08 08:15:07 51°25.254 2°52.415 4.2 13.4 1 25.5
2006-05-08 08:15:14 51°25.28 2°52.416 4.3 13.4 1 25.3
2006-05-08 08:15:19 51°25.299 2°52.417 4 13.5 1 25.5
2006-05-08 08:15:23 51°25.314 2°52.418 4.4 13.4 3 25.5
2006-05-08 08:15:27 51°25.329 2°52.42 6.1 13.5 6 25.4
2006-05-08 08:15:34 51°25.355 2°52.426 8.8 13.5 6 25.4
2006-05-08 08:15:37 51°25.366 2°52.43 10.6 13.5 10 25.1
2006-05-08 08:15:43 51°25.388 2°52.438 13.6 13.5 13 24.9
2006-05-08 08:15:47 51°25.402 2°52.443 16.2 13.5 15 25
2006-05-08 08:15:54 51°25.427 2°52.455 17.7 13.5 15 25.1
2006-05-08 08:15:58 51°25.442 2°52.462 19.1 13.4 16 25.1
2006-05-08 08:16:04 51°25.463 2°52.473 20.3 13.4 18 25.2
2006-05-08 08:16:08 51°25.477 2°52.48 21 13.6 17 25.1
2006-05-08 08:16:14 51°25.498 2°52.491 21.1 13.4 18 25.4
2006-05-08 08:16:18 51°25.512 2°52.498 21.5 13.3 17 25.6
2006-05-08 08:16:23 51°25.53 2°52.506 21.4 13.3 17 25.6
2006-05-08 08:16:27 51°25.545 2°52.513 21.1 13.4 17 25.9
2006-05-08 08:16:34 51°25.569 2°52.525 21.3 13.5 17 26
2006-05-08 08:16:39 51°25.587 2°52.534 21.5 13.2 17 25.7
2006-05-08 08:16:43 51°25.601 2°52.541 21.8 13.3 17 26.3
2006-05-08 08:16:49 51°25.622 2°52.552 21.7 13.3 18 26.4
2006-05-08 08:16:54 51°25.64 2°52.56 22.5 13.3 17 26.4
2006-05-08 08:16:59 51°25.657 2°52.569 22 13.3 17 26.8
2006-05-08 08:17:04 51°25.675 2°52.577 21.2 13.4 16 27
2006-05-08 08:17:08 51°25.69 2°52.584 21.1 13.5 16 27.4
2006-05-08 08:17:10 51°25.697 2°52.587 20.9 13.5 16 27.8
2006-05-08 08:17:19 51°25.729 2°52.602 21 13.6 17 28.4
2006-05-08 08:17:23 51°25.743 2°52.609 21 13.5 17 28.5
2006-05-08 08:17:27 51°25.758 2°52.616 21.1 13.5 17 28.4
2006-05-08 08:17:34 51°25.783 2°52.629 21.8 13.5 18 28.5
2006-05-08 08:17:39 51°25.801 2°52.638 22 13.5 17 28.5
2006-05-08 08:17:43 51°25.815 2°52.645 21.5 13.4 17 28.2
2006-05-08 08:17:48 51°25.833 2°52.654 21.4 13.5 17 28.3
2006-05-08 08:17:54 51°25.855 2°52.664 20.7 13.5 16 28.5
2006-05-08 08:17:58 51°25.869 2°52.671 20.8 13.5 17 28.8
2006-05-08 08:18:03 51°25.887 2°52.68 21.1 13.6 18 28.8
2006-05-08 08:18:07 51°25.902 2°52.687 21.5 13.7 17 28.6
2006-05-08 08:18:14 51°25.927 2°52.7 21.6 13.7 18 28.6
2006-05-08 08:18:19 51°25.945 2°52.708 21.5 13.5 16 28.5
2006-05-08 08:18:24 51°25.963 2°52.717 21.1 13.7 17 28.7
2006-05-08 08:18:29 51°25.982 2°52.725 20.9 13.6 16 28.7
2006-05-08 08:18:34 51°25.999 2°52.734 20.5 13.7 17 28.9
2006-05-08 08:18:39 51°26.018 2°52.743 21 13.6 16 28.8
2006-05-08 08:18:43 51°26.032 2°52.75 20.7 13.7 16 28.7
2006-05-08 08:18:47 51°26.047 2°52.757 20.6 13.6 17 28.7
2006-05-08 08:18:54 51°26.072 2°52.769 20.9 13.7 16 28.5
2006-05-08 08:18:58 51°26.087 2°52.776 21 13.6 17 28.4
2006-05-08 08:19:04 51°26.108 2°52.787 21.1 13.6 17 28.6
2006-05-08 08:19:08 51°26.123 2°52.794 21.5 13.7 17 28.6
2006-05-08 08:19:14 51°26.145 2°52.805 21.7 13.7 18 28.5
2006-05-08 08:19:18 51°26.159 2°52.812 21.8 13.6 17 28.1
2006-05-08 08:19:24 51°26.181 2°52.823 22.2 13.7 18 28
2006-05-08 08:19:29 51°26.199 2°52.832 21.9 13.7 18 27.6
2006-05-08 08:19:34 51°26.217 2°52.841 22.1 13.5 18 26.7
2006-05-08 08:19:39 51°26.235 2°52.85 21.7 13.7 17 26.8
2006-05-08 08:19:44 51°26.253 2°52.859 20.7 13.7 17 26.9
2006-05-08 08:19:48 51°26.267 2°52.865 20.4 13.6 17 27
2006-05-08 08:19:50 51°26.275 2°52.869 20.5 13.7 16 27
2006-05-08 08:19:58 51°26.304 2°52.883 20 13.7 16 26.8
2006-05-08 08:20:04 51°26.326 2°52.892 19.9 13.7 16 26.4
2006-05-08 08:20:07 51°26.337 2°52.897 19.9 13.7 16 26.7
2006-05-08 08:20:14 51°26.363 2°52.908 20.4 13.6 16 27.2
2006-05-08 08:20:17 51°26.374 2°52.913 19.8 13.6 14 27.2
2006-05-08 08:20:23 51°26.395 2°52.922 19.5 13.5 14 26.7
2006-05-08 08:20:27 51°26.41 2°52.928 19.6 13.6 15 26.7
2006-05-08 08:20:34 51°26.435 2°52.938 19.7 13.5 15 27.6
2006-05-08 08:20:39 51°26.453 2°52.947 20 13.5 16 28.2
2006-05-08 08:20:43 51°26.467 2°52.953 20.4 13.5 15 28.7
2006-05-08 08:20:47 51°26.482 2°52.96 20.7 13.6 16 29.5
2006-05-08 08:20:54 51°26.507 2°52.971 20.8 13.6 16 30.3
2006-05-08 08:20:59 51°26.525 2°52.979 20.7 13.5 16 30.3
2006-05-08 08:21:04 51°26.543 2°52.986 20.4 13.5 15 30.3
2006-05-08 08:21:09 51°26.562 2°52.995 20.7 13.5 16 30.6
2006-05-08 08:21:14 51°26.579 2°53.003 20.8 13.6 16 30.7
2006-05-08 08:21:19 51°26.597 2°53.011 20.8 13.5 16 31.1
2006-05-08 08:21:24 51°26.615 2°53.019 20.6 13.5 15 31.2
2006-05-08 08:21:28 51°26.63 2°53.025 20.3 13.5 15 31.5
2006-05-08 08:21:34 51°26.651 2°53.035 20.3 13.4 15 31.3
2006-05-08 08:21:38 51°26.666 2°53.041 20.7 13.5 16 31.2
2006-05-08 08:21:44 51°26.687 2°53.051 20.8 13.5 16 31.3
2006-05-08 08:21:48 51°26.702 2°53.057 20.7 13.5 15 31.3
2006-05-08 08:21:51 51°26.713 2°53.062 20.2 13.7 15 31
2006-05-08 08:21:59 51°26.742 2°53.075 20.2 13.7 15 30.6
2006-05-08 08:22:04 51°26.76 2°53.083 20.3 13.6 15 30.4
2006-05-08 08:22:07 51°26.771 2°53.088 20.3 13.6 16 30.4
2006-05-08 08:22:10 51°26.782 2°53.093 20.7 13.6 16 30.2
2006-05-08 08:22:19 51°26.814 2°53.109 21 13.6 17 30.4
2006-05-08 08:22:24 51°26.833 2°53.117 21.5 13.7 16 30.1
2006-05-08 08:22:29 51°26.851 2°53.125 21.2 13.6 16 30.2
2006-05-08 08:22:34 51°26.869 2°53.133 20.6 13.7 16 30.3
2006-05-08 08:22:38 51°26.883 2°53.14 20.3 13.5 16 30.3
2006-05-08 08:22:44 51°26.905 2°53.15 20.8 13.6 16 30.4
2006-05-08 08:22:49 51°26.924 2°53.159 20.8 13.6 16 30.8
2006-05-08 08:22:54 51°26.941 2°53.166 20.6 13.6 16 30.7
2006-05-08 08:22:58 51°26.956 2°53.172 20.2 13.5 14 30.7
2006-05-08 08:23:03 51°26.974 2°53.18 19.5 13.5 15 30.5
2006-05-08 08:23:07 51°26.988 2°53.185 19.5 13.6 15 30.6
2006-05-08 08:23:14 51°27.014 2°53.197 19.8 13.6 15 29.9
2006-05-08 08:23:19 51°27.032 2°53.206 20.5 13.7 16 29.9
2006-05-08 08:23:23 51°27.047 2°53.213 20.9 13.7 16 29.3
2006-05-08 08:23:27 51°27.061 2°53.22 21 13.7 16 28.9
2006-05-08 08:23:34 51°27.087 2°53.231 21.1 13.7 16 30.2
2006-05-08 08:23:39 51°27.105 2°53.239 20.9 13.7 15 30.3
2006-05-08 08:23:43 51°27.12 2°53.246 20.3 13.6 15 30.4
2006-05-08 08:23:47 51°27.134 2°53.251 20.4 13.5 15 29.8
2006-05-08 08:23:54 51°27.16 2°53.262 19.5 13.6 15 27.8
2006-05-08 08:23:58 51°27.174 2°53.268 19.5 13.5 15 28.9
2006-05-08 08:24:04 51°27.196 2°53.278 19.9 13.6 16 29.4
2006-05-08 08:24:09 51°27.215 2°53.286 20.6 13.6 16 28.7
2006-05-08 08:24:14 51°27.232 2°53.294 20.4 13.6 16 27.1
2006-05-08 08:24:18 51°27.247 2°53.301 20.4 13.5 16 28
2006-05-08 08:24:24 51°27.269 2°53.311 20.2 13.6 16 28.6
2006-05-08 08:24:28 51°27.283 2°53.317 20.4 13.6 15 29.6
2006-05-08 08:24:34 51°27.305 2°53.327 19.9 13.4 16 29
2006-05-08 08:24:38 51°27.319 2°53.333 19.9 13.5 15 26
2006-05-08 08:24:43 51°27.337 2°53.34 19.7 13.5 16 26.9
2006-05-08 08:24:48 51°27.356 2°53.348 20.2 13.5 14 27.9
2006-05-08 08:24:54 51°27.377 2°53.358 19.6 13.6 15 28
2006-05-08 08:24:57 51°27.388 2°53.362 20.2 13.6 15 27.4
2006-05-08 08:25:03 51°27.41 2°53.372 20.3 13.7 15 25.6
2006-05-08 08:25:07 51°27.425 2°53.378 19.9 13.6 15 25.6
2006-05-08 08:25:14 51°27.45 2°53.389 19.7 13.6 15 26.4
2006-05-08 08:25:19 51°27.468 2°53.398 20.1 13.7 16 24.3
2006-05-08 08:25:23 51°27.483 2°53.404 20.4 13.7 16 25.8
2006-05-08 08:25:29 51°27.505 2°53.415 20.3 13.7 16 25.7
2006-05-08 08:25:34 51°27.523 2°53.424 20.3 13.7 17 25.4
2006-05-08 08:25:38 51°27.538 2°53.43 20.9 13.7 16 22.4
2006-05-08 08:25:44 51°27.56 2°53.44 21 13.6 16 23.7
2006-05-08 08:25:49 51°27.579 2°53.449 20.3 13.7 15 22.1
2006-05-08 08:25:54 51°27.596 2°53.456 20 13.6 16 23.4
2006-05-08 08:25:56 51°27.603 2°53.459 20 13.6 15 24.2
2006-05-08 08:26:04 51°27.633 2°53.472 19.7 13.6 16 24.5
2006-05-08 08:26:09 51°27.652 2°53.48 19.5 13.7 15 22.3
2006-05-08 08:26:14 51°27.669 2°53.488 19 13.6 15 23.4
2006-05-08 08:26:19 51°27.687 2°53.496 19.5 13.8 15 24
2006-05-08 08:26:24 51°27.706 2°53.505 20.2 13.8 16 22.1
2006-05-08 08:26:28 51°27.721 2°53.511 20.2 13.8 15 22.4
2006-05-08 08:26:32 51°27.735 2°53.518 20.1 13.7 17 21.4
2006-05-08 08:26:39 51°27.761 2°53.53 20.6 13.7 16 22.9
2006-05-08 08:26:44 51°27.779 2°53.539 20.4 13.6 17 23.6
2006-05-08 08:26:48 51°27.794 2°53.545 20.3 13.6 16 22.3
2006-05-08 08:26:53 51°27.812 2°53.554 20.3 13.7 16 21.3
2006-05-08 08:26:59 51°27.834 2°53.564 20.3 13.7 16 22.2
2006-05-08 08:27:04 51°27.852 2°53.573 20.2 13.8 17 22.9
2006-05-08 08:27:09 51°27.871 2°53.581 20.5 13.8 16 22.7
2006-05-08 08:27:14 51°27.889 2°53.589 20.3 13.8 16 21.6
2006-05-08 08:27:18 51°27.903 2°53.596 20.2 13.8 16 22.8
2006-05-08 08:27:24 51°27.926 2°53.607 20 13.7 17 23.8
2006-05-08 08:27:27 51°27.937 2°53.612 20.4 13.6 16 24
2006-05-08 08:27:34 51°27.962 2°53.624 20.4 13.6 16 23.3
2006-05-08 08:27:39 51°27.98 2°53.632 21 13.6 16 22.8
2006-05-08 08:27:44 51°27.998 2°53.64 20.4 13.7 16 22.4
2006-05-08 08:27:48 51°28.013 2°53.648 20.2 13.7 16 19.4
2006-05-08 08:27:54 51°28.035 2°53.658 20.3 13.7 17 21.3
2006-05-08 08:27:59 51°28.053 2°53.667 20.7 13.7 17 22.4
2006-05-08 08:28:04 51°28.071 2°53.676 21 13.8 17 21.7
2006-05-08 08:28:08 51°28.086 2°53.683 20.9 13.8 17 22.4
2006-05-08 08:28:14 51°28.108 2°53.694 20.6 13.8 17 23.1
2006-05-08 08:28:18 51°28.122 2°53.701 20.6 13.8 17 21.6
2006-05-08 08:28:24 51°28.144 2°53.711 20.9 13.8 17 21.5
2006-05-08 08:28:28 51°28.159 2°53.718 20.8 13.7 17 22
2006-05-08 08:28:32 51°28.173 2°53.725 20.7 13.7 16 22.5
2006-05-08 08:28:39 51°28.199 2°53.737 20.3 13.7 16 23
2006-05-08 08:28:44 51°28.217 2°53.745 20.3 13.7 16 23.5
2006-05-08 08:28:47 51°28.228 2°53.75 20.3 13.7 17 22
2006-05-08 08:28:54 51°28.254 2°53.762 20.7 13.7 16 23.1
2006-05-08 08:28:59 51°28.272 2°53.771 20.1 13.7 16 23.2
2006-05-08 08:29:04 51°28.29 2°53.778 20.4 13.7 15 22.7
2006-05-08 08:29:08 51°28.305 2°53.784 20.1 13.5 15 23.1
2006-05-08 08:29:14 51°28.327 2°53.794 19.9 13.7 15 23.6
2006-05-08 08:29:19 51°28.345 2°53.802 19.5 13.6 15 24.5
2006-05-08 08:29:24 51°28.363 2°53.81 19.8 13.6 16 24.7
2006-05-08 08:29:27 51°28.374 2°53.815 20 13.6 16 22.7
2006-05-08 08:29:32 51°28.392 2°53.824 20.6 13.6 16 23.7
2006-05-08 08:29:39 51°28.417 2°53.835 20.8 13.6 16 23.9
2006-05-08 08:29:44 51°28.436 2°53.843 20.5 13.7 15 24.2
2006-05-08 08:29:48 51°28.451 2°53.849 20.2 13.7 15 24.4
2006-05-08 08:29:53 51°28.469 2°53.858 20.1 13.7 15 24.6
2006-05-08 08:29:59 51°28.491 2°53.867 20 13.7 15 24.2
2006-05-08 08:30:04 51°28.508 2°53.875 20.1 13.5 16 25.1
2006-05-08 08:30:09 51°28.527 2°53.883 20.4 13.5 16 25.6
2006-05-08 08:30:14 51°28.545 2°53.891 20.3 13.6 15 26
2006-05-08 08:30:19 51°28.563 2°53.898 20 13.5 15 25.9
2006-05-08 08:30:24 51°28.581 2°53.906 19.7 13.6 15 25.9
2006-05-08 08:30:29 51°28.6 2°53.915 19.8 13.6 16 25.9
2006-05-08 08:30:34 51°28.617 2°53.922 20.8 13.6 15 26.2
2006-05-08 08:30:36 51°28.625 2°53.926 20.6 13.6 16 26.1
2006-05-08 08:30:44 51°28.653 2°53.938 20.6 13.5 15 26.3
2006-05-08 08:30:48 51°28.668 2°53.944 21 13.4 15 26
2006-05-08 08:30:51 51°28.679 2°53.949 20.4 13.4 15 26.1
2006-05-08 08:30:59 51°28.708 2°53.962 20.5 13.4 15 25.9
2006-05-08 08:31:04 51°28.726 2°53.969 20.2 13.5 15 26.1
2006-05-08 08:31:08 51°28.74 2°53.976 20.4 13.5 16 25.9
2006-05-08 08:31:14 51°28.762 2°53.986 20.9 13.5 16 26.1
2006-05-08 08:31:19 51°28.78 2°53.994 20.8 13.6 16 26.4
2006-05-08 08:31:24 51°28.798 2°54.003 20.7 13.6 15 26.5
2006-05-08 08:31:28 51°28.812 2°54.01 21 13.6 16 26.5
2006-05-08 08:31:34 51°28.834 2°54.019 21.7 13.6 17 26.5
2006-05-08 08:31:38 51°28.849 2°54.027 21.5 13.6 17 26.6
2006-05-08 08:31:44 51°28.871 2°54.037 21.6 13.6 16 26.6
2006-05-08 08:31:49 51°28.889 2°54.046 21.6 13.6 16 26.8
2006-05-08 08:31:54 51°28.906 2°54.054 21.6 13.5 16 27.1
2006-05-08 08:31:56 51°28.914 2°54.057 21.7 13.5 17 26.9
2006-05-08 08:32:04 51°28.942 2°54.071 21.6 13.4 16 27.2
2006-05-08 08:32:09 51°28.96 2°54.08 21.7 13.4 16 27.1
2006-05-08 08:32:13 51°28.975 2°54.086 20.6 13.5 16 27.2
2006-05-08 08:32:19 51°28.996 2°54.096 20.8 13.5 16 27.5
2006-05-08 08:32:24 51°29.014 2°54.104 20.3 13.5 15 27.4
2006-05-08 08:32:29 51°29.033 2°54.111 19.9 13.5 15 27.5
2006-05-08 08:32:34 51°29.05 2°54.119 19.6 13.4 15 27.6
2006-05-08 08:32:39 51°29.068 2°54.127 20 13.4 16 27.5
2006-05-08 08:32:44 51°29.086 2°54.135 20.1 13.5 15 27.6
2006-05-08 08:32:49 51°29.104 2°54.143 20.2 13.5 16 28
2006-05-08 08:32:54 51°29.122 2°54.151 20.3 13.5 16 27.9
2006-05-08 08:32:59 51°29.14 2°54.16 20.6 13.4 16 28
2006-05-08 08:33:04 51°29.158 2°54.168 20.4 13.4 16 28.2
2006-05-08 08:33:07 51°29.169 2°54.173 20.8 13.4 15 28.2
2006-05-08 08:33:14 51°29.194 2°54.185 20.1 13.5 16 28.3
2006-05-08 08:33:19 51°29.212 2°54.193 20.6 13.4 16 28.6
2006-05-08 08:33:24 51°29.23 2°54.201 20.2 13.5 15 28.7
2006-05-08 08:33:28 51°29.244 2°54.207 19.9 13.4 16 28.8
2006-05-08 08:33:34 51°29.265 2°54.217 20.2 13.4 15 29.1
2006-05-08 08:33:38 51°29.28 2°54.223 20 13.5 16 29.1
2006-05-08 08:33:43 51°29.298 2°54.232 19.8 13.5 16 29.4
2006-05-08 08:33:48 51°29.316 2°54.24 20.3 13.5 16 29.4
2006-05-08 08:33:53 51°29.334 2°54.248 20.6 13.5 16 29.4
2006-05-08 08:33:58 51°29.351 2°54.256 20.9 13.3 16 29.6
2006-05-08 08:34:04 51°29.372 2°54.266 21 13.2 17 29.6
2006-05-08 08:34:09 51°29.391 2°54.275 21.2 13.2 16 29.5
2006-05-08 08:34:14 51°29.408 2°54.282 20.6 13.3 15 29.8
2006-05-08 08:34:18 51°29.422 2°54.289 19.8 13.3 16 29.8
2006-05-08 08:34:24 51°29.443 2°54.299 19.7 13.2 15 30